DELTA 1 DEB, 26823

Orbit data source: Space-Track

DELTA 1 DEB, 26823 is space debris in SSO originally from a launch on Thu, 12 Jun 1975 UTC launched from the Air Force Western Test Range (AFWTR). Debris objects in space refer to the collection of defunct objects orbiting the Earth. Examples of debris include non-operational satellites, rocket bodies, and fragments generated from explosions, collisions, or faulty payload assembly.

Loading next visibility...
Identifier
26823, 1975-052KD
Orbit
SSO
Country
Flag of USUS
Related business
Manufacturer
Unknown
Mission
Spacecraft
Bus & Motor
Unknown
Mass
Unknown
Launch date (UTC)
1975-06-12 (50 years ago)
Launch vehicle
Unknown
Launch site
Air Force Western Test Range (AFWTR)
Object type
Payload
Rocket body
Debris
Shape & HBR
Unknown shape, 0.1 m
Radar Cross Section
Small (<0.1 m²)

Expand to show TLE details & history
Last TLE update: 1 day ago

TLE from 1 day ago
0 DELTA 1 DEB
1 26823U 75052KD  25287.58754019  .00001622  00000-0  24108-2 0  9991
2 26823 100.0069 158.3765 0047846  21.7686   8.0171 13.54829177673339
Epoch: 2025-10-14T14:06Z
TLE epoch observation values (Epoch: 2025-10-14T14:06:03.472Z)
Latitude
29.41222°
Longitude
-82.19107°
Altitude
1,022.871 km
Speed
7.36 km/s
True Right ascension
10h 10m 47s
True Declination
29° 16' 14"
Sunlit
Object was in daylight at epoch
Visualization orbit readout
Latitude
Unknown
Longitude
Unknown
Altitude
Unknown
Speed
Unknown
Apparent Right ascension
Unknown
Apparent Declination
Unknown
Sunlit
N/A
Visualization observer readout
Local Sidereal Time
11:50:16
Azimuth
Unknown
Elevation
Unknown
Doppler factor
Unknown
Orbital elements
Apogee altitude
1,087.404 km
Perigee altitude
1,016.305 km
Semi-major axis
7,429.992 km
Eccentricity
0.00478
Inclination
100.0069°
RAAN
158.3765°
Arg. of periapsis
21.7686°
True anomaly
8.09402°
Mean anomaly
8.0171°
Eccentric anomaly
8.05552°
Mean motion
3.38892 °/min
Orbital period
106.23 mins
BSTAR
0.0024108
Loading maneuver chart data...
Computing Atmospheric mass density...
Loading historical data...
Loading historical data...
Loading historical data...
Loading historical data...
Loading historical data...
Loading historical data...
Loading historical data...

Documentation

Showing up to 5 results
|